CZ-6A DEB, 55539

Orbit data source: Space-Track

CZ-6A DEB, 55539 is space debris in SSO originally from a launch on Fri, 11 Nov 2022 UTC launched from the Taiyaun Space Center, China (TSC). Debris objects in space refer to the collection of defunct objects orbiting the Earth. Examples of debris include non-operational satellites, rocket bodies, and fragments generated from explosions, collisions, or faulty payload assembly.

Loading next visibility...
Identifier
55539, 2022-151YM
Orbit
SSO
Country
Flag of CNCN / PRC
Related business
Manufacturer
SAST
Mission
Spacecraft
Bus & Motor
Unknown
Mass
Unknown
Launch date (UTC)
2022-11-11 (4 years ago)
Launch vehicle
Unknown
Launch site
Taiyaun Space Center, China (TSC)
Object type
Payload
Rocket body
Debris
Shape & HBR
Unknown shape, 0.1 m
Radar Cross Section
Small (<0.1 m²)

Expand to show TLE details & history
Last TLE update: 21 hours ago

TLE from 21 hours ago
0 CZ-6A DEB
1 55539U 22151YM  26237.04013108  .00003687  00000-0  14497-2 0  9996
2 55539  98.8200 257.1679 0068510 137.4541 223.1977 14.28587897190413
Epoch: 2026-08-25T00:57Z
TLE epoch observation values (Epoch: 2026-08-25T00:57:47.325Z)
Latitude
-0.00001°
Longitude
-90.59248°
Altitude
835.374 km
Speed
7.417 km/s
True Right ascension
17h 08m 40s
True Declination
0° 00' 00"
Sunlit
Object was in daylight at epoch
Visualization orbit readout
Latitude
Unknown
Longitude
Unknown
Altitude
Unknown
Speed
Unknown
Apparent Right ascension
Unknown
Apparent Declination
Unknown
Sunlit
N/A
Visualization observer readout
Local Sidereal Time
13:19:54
Azimuth
Unknown
Elevation
Unknown
Doppler factor
Unknown
Orbital elements
Apogee altitude
842.741 km
Perigee altitude
744.473 km
Semi-major axis
7,171.744 km
Eccentricity
0.00685
Inclination
98.82°
RAAN
257.1679°
Arg. of periapsis
137.4541°
True anomaly
222.66365°
Mean anomaly
223.1977°
Eccentric anomaly
222.93034°
Mean motion
3.5736 °/min
Orbital period
100.74 mins
BSTAR
0.0014497
Loading maneuver chart data...
Computing Atmospheric mass density...
Loading historical data...
Loading historical data...
Loading historical data...
Loading historical data...
Loading historical data...
Loading historical data...
Loading historical data...

Documentation

Showing up to 5 results
|